����������;��������(kVARh)
2016-03-14 00:00;0,05
2016-03-14 00:15;0,15
2016-03-14 00:30;0,05
2016-03-14 00:45;0,5
2016-03-14 01:00;2,8
2016-03-14 01:15;16,1
2016-03-14 01:30;15,5
2016-03-14 01:45;11,5
2016-03-14 02:00;6
2016-03-14 02:15;4,7
2016-03-14 02:30;4,9
2016-03-14 02:45;4
2016-03-14 03:00;5,8
2016-03-14 03:15;5,35
2016-03-14 03:30;5,85
2016-03-14 03:45;4,4
2016-03-14 04:00;5,9
2016-03-14 04:15;3,6
2016-03-14 04:30;4,75
2016-03-14 04:45;3,45
2016-03-14 05:00;4,75
2016-03-14 05:15;4,85
2016-03-14 05:30;4,85
2016-03-14 05:45;4,15
2016-03-14 06:00;4,05
2016-03-14 06:15;5,65
2016-03-14 06:30;5,15
2016-03-14 06:45;8,3
2016-03-14 07:00;8,75
2016-03-14 07:15;11,4
2016-03-14 07:30;9,3
2016-03-14 07:45;10,7
2016-03-14 08:00;10
2016-03-14 08:15;4
2016-03-14 08:30;6,3
2016-03-14 08:45;12,15
2016-03-14 09:00;9,8
2016-03-14 09:15;11,65
2016-03-14 09:30;10
2016-03-14 09:45;13,2
2016-03-14 10:00;18,5
2016-03-14 10:15;18,95
2016-03-14 10:30;18,3
2016-03-14 10:45;20,75
2016-03-14 11:00;19,4
2016-03-14 11:15;25,6
2016-03-14 11:30;20,2
2016-03-14 11:45;20,5
2016-03-14 12:00;19,55
2016-03-14 12:15;20
2016-03-14 12:30;19,45
2016-03-14 12:45;20,6
2016-03-14 13:00;15,7
2016-03-14 13:15;12,3
2016-03-14 13:30;12,2
2016-03-14 13:45;13,85
2016-03-14 14:00;13,05
2016-03-14 14:15;11,8
2016-03-14 14:30;10,7
2016-03-14 14:45;12
2016-03-14 15:00;11,85
2016-03-14 15:15;14,2
2016-03-14 15:30;14,7
2016-03-14 15:45;16,7
2016-03-14 16:00;18,95
2016-03-14 16:15;19,05
2016-03-14 16:30;19,2
2016-03-14 16:45;19,55
2016-03-14 17:00;16,25
2016-03-14 17:15;13,95
2016-03-14 17:30;13,7
2016-03-14 17:45;11,4
2016-03-14 18:00;7,05
2016-03-14 18:15;4,9
2016-03-14 18:30;8
2016-03-14 18:45;7,75
2016-03-14 19:00;7,4
2016-03-14 19:15;5,6
2016-03-14 19:30;4,15
2016-03-14 19:45;2,65
2016-03-14 20:00;1,75
2016-03-14 20:15;2,95
2016-03-14 20:30;3
2016-03-14 20:45;2,15
2016-03-14 21:00;4,15
2016-03-14 21:15;1,3
2016-03-14 21:30;1,85
2016-03-14 21:45;1,35
2016-03-14 22:00;3,5
2016-03-14 22:15;2,4
2016-03-14 22:30;1,05
2016-03-14 22:45;0,95
2016-03-14 23:00;1,25
2016-03-14 23:15;3,35
2016-03-14 23:30;0,85
2016-03-14 23:45;1,4
2016-03-15 00:00;0,25
2016-03-15 00:15;0,3
2016-03-15 00:30;0,85
2016-03-15 00:45;0,25
2016-03-15 01:00;1
2016-03-15 01:15;0,8
2016-03-15 01:30;0,8
2016-03-15 01:45;12,3
2016-03-15 02:00;14,85
2016-03-15 02:15;10,5
2016-03-15 02:30;5,65
2016-03-15 02:45;4,3
2016-03-15 03:00;6,4
2016-03-15 03:15;5,3
2016-03-15 03:30;4,8
2016-03-15 03:45;6,2
2016-03-15 04:00;8,55
2016-03-15 04:15;5,55
2016-03-15 04:30;5,9
2016-03-15 04:45;5,4
2016-03-15 05:00;4,7
2016-03-15 05:15;5,3
2016-03-15 05:30;4,7
2016-03-15 05:45;5,3
2016-03-15 06:00;5
2016-03-15 06:15;5,1
2016-03-15 06:30;4,1
2016-03-15 06:45;6,6
2016-03-15 07:00;4,65
2016-03-15 07:15;5,85
2016-03-15 07:30;3,65
2016-03-15 07:45;6,6
2016-03-15 08:00;10,85
2016-03-15 08:15;18,05
2016-03-15 08:30;24,2
2016-03-15 08:45;27,85
2016-03-15 09:00;33,6
2016-03-15 09:15;33
2016-03-15 09:30;36,65
2016-03-15 09:45;38,95
2016-03-15 10:00;39
2016-03-15 10:15;40,9
2016-03-15 10:30;49
2016-03-15 10:45;43,3
2016-03-15 11:00;42
2016-03-15 11:15;39,35
2016-03-15 11:30;48,8
2016-03-15 11:45;49,75
2016-03-15 12:00;46,95
2016-03-15 12:15;52,25
2016-03-15 12:30;50,4
2016-03-15 12:45;47,9
2016-03-15 13:00;50,8
2016-03-15 13:15;43,1
2016-03-15 13:30;50,3
2016-03-15 13:45;40,3
2016-03-15 14:00;42,85
2016-03-15 14:15;46
2016-03-15 14:30;47,3
2016-03-15 14:45;42,05
2016-03-15 15:00;37,5
2016-03-15 15:15;37
2016-03-15 15:30;38,5
2016-03-15 15:45;37,6
2016-03-15 16:00;35,25
2016-03-15 16:15;29,25
2016-03-15 16:30;26,45
2016-03-15 16:45;29,35
2016-03-15 17:00;25,6
2016-03-15 17:15;24,9
2016-03-15 17:30;20,15
2016-03-15 17:45;14,65
2016-03-15 18:00;12,8
2016-03-15 18:15;10,3
2016-03-15 18:30;9,7
2016-03-15 18:45;8,5
2016-03-15 19:00;5,55
2016-03-15 19:15;4,9
2016-03-15 19:30;5,85
2016-03-15 19:45;0,7
2016-03-15 20:00;0,9
2016-03-15 20:15;0,5
2016-03-15 20:30;0,15
2016-03-15 20:45;0,05
2016-03-15 21:00;0
2016-03-15 21:15;0
2016-03-15 21:30;0
2016-03-15 21:45;0,05
2016-03-15 22:00;0,4
2016-03-15 22:15;0
2016-03-15 22:30;0
2016-03-15 22:45;0,1
2016-03-15 23:00;0,2
2016-03-15 23:15;0
2016-03-15 23:30;0,05
2016-03-15 23:45;0
2016-03-16 00:00;0,3
2016-03-16 00:15;0,7
2016-03-16 00:30;1
2016-03-16 00:45;3,85
2016-03-16 01:00;3,7
2016-03-16 01:15;6,3
2016-03-16 01:30;2,15
2016-03-16 01:45;5,7
2016-03-16 02:00;5,35
2016-03-16 02:15;1,55
2016-03-16 02:30;0,45
2016-03-16 02:45;0
2016-03-16 03:00;0,15
2016-03-16 03:15;0
2016-03-16 03:30;0
2016-03-16 03:45;0
2016-03-16 04:00;0,05
2016-03-16 04:15;0
2016-03-16 04:30;0
2016-03-16 04:45;0
2016-03-16 05:00;0
2016-03-16 05:15;0,05
2016-03-16 05:30;0
2016-03-16 05:45;0
2016-03-16 06:00;0,8
2016-03-16 06:15;1,95
2016-03-16 06:30;12,25
2016-03-16 06:45;12,75
2016-03-16 07:00;14,9
2016-03-16 07:15;13,3
2016-03-16 07:30;13,95
2016-03-16 07:45;18,9
2016-03-16 08:00;23,3
2016-03-16 08:15;33,9
2016-03-16 08:30;33,1
2016-03-16 08:45;34,6
2016-03-16 09:00;44,5
2016-03-16 09:15;54,85
2016-03-16 09:30;55,4
2016-03-16 09:45;44,5
2016-03-16 10:00;51,5
2016-03-16 10:15;49,1
2016-03-16 10:30;43,65
2016-03-16 10:45;45,65
2016-03-16 11:00;46,95
2016-03-16 11:15;52,4
2016-03-16 11:30;42,75
2016-03-16 11:45;44,15
2016-03-16 12:00;49
2016-03-16 12:15;65,6
2016-03-16 12:30;53,9
2016-03-16 12:45;55,35
2016-03-16 13:00;58,1
2016-03-16 13:15;57
2016-03-16 13:30;58,25
2016-03-16 13:45;47,65
2016-03-16 14:00;55,9
2016-03-16 14:15;59,25
2016-03-16 14:30;57,7
2016-03-16 14:45;66,6
2016-03-16 15:00;51,25
2016-03-16 15:15;53,25
2016-03-16 15:30;47
2016-03-16 15:45;54,95
2016-03-16 16:00;49,95
2016-03-16 16:15;44,8
2016-03-16 16:30;39,65
2016-03-16 16:45;43,05
2016-03-16 17:00;42
2016-03-16 17:15;37,75
2016-03-16 17:30;32,7
2016-03-16 17:45;32,95
2016-03-16 18:00;27,55
2016-03-16 18:15;26
2016-03-16 18:30;25
2016-03-16 18:45;22,25
2016-03-16 19:00;16,35
2016-03-16 19:15;12,45
2016-03-16 19:30;15,8
2016-03-16 19:45;14,2
2016-03-16 20:00;10,05
2016-03-16 20:15;6,25
2016-03-16 20:30;3,1
2016-03-16 20:45;2,5
2016-03-16 21:00;2,9
2016-03-16 21:15;0,4
2016-03-16 21:30;0,35
2016-03-16 21:45;0
2016-03-16 22:00;0
2016-03-16 22:15;0,45
2016-03-16 22:30;0,05
2016-03-16 22:45;0,05
2016-03-16 23:00;0,8
2016-03-16 23:15;0,35
2016-03-16 23:30;0,15
2016-03-16 23:45;0
2016-03-17 00:00;0
2016-03-17 00:15;0
2016-03-17 00:30;0
2016-03-17 00:45;0,1
2016-03-17 01:00;0
2016-03-17 01:15;0
2016-03-17 01:30;0
2016-03-17 01:45;0
2016-03-17 02:00;0
2016-03-17 02:15;7,55
2016-03-17 02:30;8,35
2016-03-17 02:45;5,1
2016-03-17 03:00;0,7
2016-03-17 03:15;0,1
2016-03-17 03:30;0,7
2016-03-17 03:45;0,75
2016-03-17 04:00;0,2
2016-03-17 04:15;0,05
2016-03-17 04:30;0,1
2016-03-17 04:45;0,45
2016-03-17 05:00;0,05
2016-03-17 05:15;0,2
2016-03-17 05:30;1,5
2016-03-17 05:45;0,4
2016-03-17 06:00;0,3
2016-03-17 06:15;5,5
2016-03-17 06:30;6,35
2016-03-17 06:45;13,3
2016-03-17 07:00;16,55
2016-03-17 07:15;14,4
2016-03-17 07:30;15,7
2016-03-17 07:45;20,95
2016-03-17 08:00;22,85
2016-03-17 08:15;18,4
2016-03-17 08:30;20,7
2016-03-17 08:45;19,05
2016-03-17 09:00;31,45
2016-03-17 09:15;34,7
2016-03-17 09:30;41,35
2016-03-17 09:45;37,1
2016-03-17 10:00;46,3
2016-03-17 10:15;39,6
2016-03-17 10:30;43,85
2016-03-17 10:45;43,25
2016-03-17 11:00;43,9
2016-03-17 11:15;43,1
2016-03-17 11:30;49,5
2016-03-17 11:45;48,15
2016-03-17 12:00;49
2016-03-17 12:15;53,7
2016-03-17 12:30;57,6
2016-03-17 12:45;69,5
2016-03-17 13:00;70,75
2016-03-17 13:15;54,6
2016-03-17 13:30;66,05
2016-03-17 13:45;67,05
2016-03-17 14:00;67
2016-03-17 14:15;58,65
2016-03-17 14:30;64,1
2016-03-17 14:45;56,15
2016-03-17 15:00;58,5
2016-03-17 15:15;55,55
2016-03-17 15:30;55,8
2016-03-17 15:45;53,5
2016-03-17 16:00;46,95
2016-03-17 16:15;43,45
2016-03-17 16:30;43,95
2016-03-17 16:45;43,2
2016-03-17 17:00;45,3
2016-03-17 17:15;39,6
2016-03-17 17:30;35,75
2016-03-17 17:45;35,45
2016-03-17 18:00;28,25
2016-03-17 18:15;24,7
2016-03-17 18:30;25,1
2016-03-17 18:45;22,6
2016-03-17 19:00;22,7
2016-03-17 19:15;20,5
2016-03-17 19:30;22,75
2016-03-17 19:45;23,95
2016-03-17 20:00;25,45
2016-03-17 20:15;24,25
2016-03-17 20:30;25,5
2016-03-17 20:45;24,5
2016-03-17 21:00;20,7
2016-03-17 21:15;22,95
2016-03-17 21:30;28,4
2016-03-17 21:45;28,35
2016-03-17 22:00;21,1
2016-03-17 22:15;13,55
2016-03-17 22:30;7
2016-03-17 22:45;1,8
2016-03-17 23:00;0,5
2016-03-17 23:15;0,05
2016-03-17 23:30;0,45
2016-03-17 23:45;0,05
2016-03-18 00:00;0,95
2016-03-18 00:15;1,35
2016-03-18 00:30;1,15
2016-03-18 00:45;2,35
2016-03-18 01:00;0,25
2016-03-18 01:15;0
2016-03-18 01:30;0
2016-03-18 01:45;0
2016-03-18 02:00;0
2016-03-18 02:15;0
2016-03-18 02:30;0
2016-03-18 02:45;0
2016-03-18 03:00;12,15
2016-03-18 03:15;9,1
2016-03-18 03:30;5,8
2016-03-18 03:45;1,6
2016-03-18 04:00;0,95
2016-03-18 04:15;0,35
2016-03-18 04:30;0,1
2016-03-18 04:45;0,15
2016-03-18 05:00;0,05
2016-03-18 05:15;0,1
2016-03-18 05:30;0,6
2016-03-18 05:45;0,2
2016-03-18 06:00;0,2
2016-03-18 06:15;4,8
2016-03-18 06:30;8,75
2016-03-18 06:45;8,15
2016-03-18 07:00;6,5
2016-03-18 07:15;9,75
2016-03-18 07:30;12,2
2016-03-18 07:45;21,85
2016-03-18 08:00;22,3
2016-03-18 08:15;17,75
2016-03-18 08:30;25,7
2016-03-18 08:45;30,75
2016-03-18 09:00;32,75
2016-03-18 09:15;45,05
2016-03-18 09:30;47,95
2016-03-18 09:45;46,15
2016-03-18 10:00;41,4
2016-03-18 10:15;50,4
2016-03-18 10:30;48,2
2016-03-18 10:45;55,25
2016-03-18 11:00;47,95
2016-03-18 11:15;47,85
2016-03-18 11:30;44,85
2016-03-18 11:45;48,7
2016-03-18 12:00;47,5
2016-03-18 12:15;55,95
2016-03-18 12:30;58,25
2016-03-18 12:45;56,6
2016-03-18 13:00;64,9
2016-03-18 13:15;56,35
2016-03-18 13:30;52,85
2016-03-18 13:45;56,55
2016-03-18 14:00;56,4
2016-03-18 14:15;52,85
2016-03-18 14:30;47,2
2016-03-18 14:45;48,5
2016-03-18 15:00;44,9
2016-03-18 15:15;47,7
2016-03-18 15:30;45,15
2016-03-18 15:45;46,85
2016-03-18 16:00;44,6
2016-03-18 16:15;32,75
2016-03-18 16:30;33,8
2016-03-18 16:45;37,85
2016-03-18 17:00;35,3
2016-03-18 17:15;31
2016-03-18 17:30;24,8
2016-03-18 17:45;20,75
2016-03-18 18:00;26,85
2016-03-18 18:15;21,8
2016-03-18 18:30;25,95
2016-03-18 18:45;20,25
2016-03-18 19:00;18,15
2016-03-18 19:15;19,65
2016-03-18 19:30;18,3
2016-03-18 19:45;14,45
2016-03-18 20:00;13,65
2016-03-18 20:15;10,5
2016-03-18 20:30;11,4
2016-03-18 20:45;10,45
2016-03-18 21:00;9,1
2016-03-18 21:15;3,5
2016-03-18 21:30;2,2
2016-03-18 21:45;2,1
2016-03-18 22:00;2,75
2016-03-18 22:15;0,15
2016-03-18 22:30;0
2016-03-18 22:45;0
2016-03-18 23:00;0
2016-03-18 23:15;0
2016-03-18 23:30;0
2016-03-18 23:45;0
2016-03-19 00:00;0
2016-03-19 00:15;0
2016-03-19 00:30;0
2016-03-19 00:45;0
2016-03-19 01:00;0
2016-03-19 01:15;0
2016-03-19 01:30;0
2016-03-19 01:45;0
2016-03-19 02:00;0
2016-03-19 02:15;0
2016-03-19 02:30;0
2016-03-19 02:45;0
2016-03-19 03:00;0
2016-03-19 03:15;0
2016-03-19 03:30;0,1
2016-03-19 03:45;0
2016-03-19 04:00;0
2016-03-19 04:15;0
2016-03-19 04:30;0
2016-03-19 04:45;0
2016-03-19 05:00;0
2016-03-19 05:15;0
2016-03-19 05:30;0
2016-03-19 05:45;0
2016-03-19 06:00;0
2016-03-19 06:15;0
2016-03-19 06:30;0
2016-03-19 06:45;0
2016-03-19 07:00;0,05
2016-03-19 07:15;0
2016-03-19 07:30;0
2016-03-19 07:45;0
2016-03-19 08:00;0
2016-03-19 08:15;0
2016-03-19 08:30;0
2016-03-19 08:45;0
2016-03-19 09:00;0
2016-03-19 09:15;0
2016-03-19 09:30;0
2016-03-19 09:45;0
2016-03-19 10:00;0
2016-03-19 10:15;0
2016-03-19 10:30;0
2016-03-19 10:45;0
2016-03-19 11:00;0
2016-03-19 11:15;0
2016-03-19 11:30;0
2016-03-19 11:45;0
2016-03-19 12:00;0
2016-03-19 12:15;0
2016-03-19 12:30;0,5
2016-03-19 12:45;1,45
2016-03-19 13:00;1,05
2016-03-19 13:15;0,45
2016-03-19 13:30;0,7
2016-03-19 13:45;0,75
2016-03-19 14:00;0,1
2016-03-19 14:15;0
2016-03-19 14:30;0
2016-03-19 14:45;0
2016-03-19 15:00;0,1
2016-03-19 15:15;0,1
2016-03-19 15:30;0,05
2016-03-19 15:45;0,35
2016-03-19 16:00;0,45
2016-03-19 16:15;0,2
2016-03-19 16:30;0,15
2016-03-19 16:45;1
2016-03-19 17:00;0,25
2016-03-19 17:15;0,05
2016-03-19 17:30;0,4
2016-03-19 17:45;0,05
2016-03-19 18:00;0
2016-03-19 18:15;0
2016-03-19 18:30;0,15
2016-03-19 18:45;0
2016-03-19 19:00;0,05
2016-03-19 19:15;0,15
2016-03-19 19:30;0,05
2016-03-19 19:45;0,65
2016-03-19 20:00;3,3
2016-03-19 20:15;4,45
2016-03-19 20:30;4
2016-03-19 20:45;4,25
2016-03-19 21:00;6,25
2016-03-19 21:15;1,25
2016-03-19 21:30;0,1
2016-03-19 21:45;0,3
2016-03-19 22:00;0
2016-03-19 22:15;0
2016-03-19 22:30;0
2016-03-19 22:45;0
2016-03-19 23:00;0
2016-03-19 23:15;0
2016-03-19 23:30;0
2016-03-19 23:45;0
2016-03-20 00:00;0
2016-03-20 00:15;0
2016-03-20 00:30;0
2016-03-20 00:45;0
2016-03-20 01:00;0
2016-03-20 01:15;0
2016-03-20 01:30;0
2016-03-20 01:45;0
2016-03-20 02:00;0
2016-03-20 02:15;0
2016-03-20 02:30;0
2016-03-20 02:45;0
2016-03-20 03:00;0
2016-03-20 03:15;0
2016-03-20 03:30;0
2016-03-20 03:45;0
2016-03-20 04:00;0
2016-03-20 04:15;0
2016-03-20 04:30;0
2016-03-20 04:45;0
2016-03-20 05:00;0
2016-03-20 05:15;0
2016-03-20 05:30;0
2016-03-20 05:45;0,05
2016-03-20 06:00;0,05
2016-03-20 06:15;0
2016-03-20 06:30;0
2016-03-20 06:45;0,05
2016-03-20 07:00;0
2016-03-20 07:15;0,05
2016-03-20 07:30;0
2016-03-20 07:45;0
2016-03-20 08:00;0
2016-03-20 08:15;0
2016-03-20 08:30;0
2016-03-20 08:45;0
2016-03-20 09:00;0
2016-03-20 09:15;0
2016-03-20 09:30;0
2016-03-20 09:45;0
2016-03-20 10:00;0
2016-03-20 10:15;0
2016-03-20 10:30;0
2016-03-20 10:45;0
2016-03-20 11:00;0
2016-03-20 11:15;0
2016-03-20 11:30;0
2016-03-20 11:45;0
2016-03-20 12:00;0,05
2016-03-20 12:15;0,25
2016-03-20 12:30;0
2016-03-20 12:45;0,3
2016-03-20 13:00;0,1
2016-03-20 13:15;0,75
2016-03-20 13:30;0,15
2016-03-20 13:45;0,05
2016-03-20 14:00;0,7
2016-03-20 14:15;0,2
2016-03-20 14:30;1,05
2016-03-20 14:45;1,9
2016-03-20 15:00;2,35
2016-03-20 15:15;2,7
2016-03-20 15:30;1,4
2016-03-20 15:45;2,2
2016-03-20 16:00;1,85
2016-03-20 16:15;3
2016-03-20 16:30;3
2016-03-20 16:45;4,05
2016-03-20 17:00;1,6
2016-03-20 17:15;2,95
2016-03-20 17:30;3,65
2016-03-20 17:45;4,15
2016-03-20 18:00;3,5
2016-03-20 18:15;2,5
2016-03-20 18:30;0,95
2016-03-20 18:45;1,95
2016-03-20 19:00;0,55
2016-03-20 19:15;0
2016-03-20 19:30;0,25
2016-03-20 19:45;0,1
2016-03-20 20:00;0,35
2016-03-20 20:15;0,6
2016-03-20 20:30;0,1
2016-03-20 20:45;0,3
2016-03-20 21:00;1
2016-03-20 21:15;0,9
2016-03-20 21:30;0,55
2016-03-20 21:45;0,35
2016-03-20 22:00;0,95
2016-03-20 22:15;0
2016-03-20 22:30;0
2016-03-20 22:45;0
2016-03-20 23:00;0
2016-03-20 23:15;0,05
2016-03-20 23:30;0,05
2016-03-20 23:45;0,2

